CW0238 Weather Reports


Display with metric or nautical units.
time (UTC)temp
F
wind
direction
speed
MPH
gust
MPH
rain 1hr
in
rain 24hr
in
rain mn
in
humidity
%
barometer
mb
20260901192540 98 307 1.0 4.0 0.00 0.00 0.00 41 1017.3
20260901192037 97 348 1.0 4.0 0.00 0.00 0.00 45 1017.3
20260901191538 96 294 0.0 2.0 0.00 0.00 0.00 45 1017.3
20260901191036 96 292 1.0 5.0 0.00 0.00 0.00 45 1017.4
20260901190817 96 292 1.0 5.0 0.00 0.00 0.00 43 1017.6
20260901190033 96 355 1.0 4.0 0.00 0.00 0.00 47 1017.6
20260901185032 97 254 2.0 7.0 0.00 0.00 0.00 44 1017.8
20260901184531 96 319 1.0 7.0 0.00 0.00 0.00 44 1017.9
20260901184032 96 286 2.0 7.0 0.00 0.00 0.00 46 1017.9
20260901183530 96 190 2.0 7.0 0.00 0.00 0.00 46 1018.0
20260901183029 95 311 2.0 7.0 0.00 0.00 0.00 46 1018.0
20260901182529 95 279 1.0 5.0 0.00 0.00 0.00 47 1018.1
20260901182029 95 273 1.0 5.0 0.00 0.00 0.00 47 1018.1
20260901181543 95 275 1.0 4.0 0.00 0.00 0.00 48 1018.1
20260901181301 95 73 1.0 4.0 0.00 0.00 0.00 47 1018.2
20260901180530 95 296 1.0 7.0 0.00 0.00 0.00 45 1018.2
20260901180028 95 269 2.0 7.0 0.00 0.00 0.00 49 1018.3
20260901175522 94 250 1.0 4.0 0.00 0.00 0.00 50 1018.2
20260901175023 93 303 2.0 6.0 0.00 0.00 0.00 49 1018.4
20260901174522 95 333 2.0 6.0 0.00 0.00 0.00 48 1018.4
20260901174022 94 312 2.0 6.0 0.00 0.00 0.00 49 1018.4
20260901173521 94 29 2.0 6.0 0.00 0.00 0.00 48 1018.4
20260901173021 94 349 2.0 6.0 0.00 0.00 0.00 50 1018.5
20260901172522 95 277 2.0 7.0 0.00 0.00 0.00 49 1018.5
20260901172020 94 267 2.0 7.0 0.00 0.00 0.00 50 1018.5
20260901171519 94 305 2.0 5.0 0.00 0.00 0.00 53 1018.5
20260901171241 94 323 1.0 4.0 0.00 0.00 0.00 54 1018.5
20260901170513 93 302 2.0 7.0 0.00 0.00 0.00 54 1018.6
20260901170013 93 268 1.0 7.0 0.00 0.00 0.00 54 1018.7
20260901165509 93 159 1.0 4.0 0.00 0.00 0.00 55 1018.7
20260901165011 94 344 1.0 4.0 0.00 0.00 0.00 54 1018.7
20260901164510 93 302 2.0 7.0 0.00 0.00 0.00 55 1018.7
20260901164006 92 271 2.0 8.0 0.00 0.00 0.00 55 1018.8
20260901163505 92 287 1.0 8.0 0.00 0.00 0.00 57 1018.8
20260901163006 91 331 1.0 6.0 0.00 0.00 0.00 59 1018.9
20260901162505 91 299 1.0 8.0 0.00 0.00 0.00 59 1018.9
20260901162005 91 53 2.0 8.0 0.00 0.00 0.00 59 1019.0
20260901161501 91 47 1.0 4.0 0.00 0.00 0.00 59 1019.0
20260901161013 91 319 2.0 4.0 0.00 0.00 0.00 59 1019.0
20260901160500 90 3 2.0 5.0 0.00 0.00 0.00 61 1019.0
20260901155958 90 269 2.0 7.0 0.00 0.00 0.00 62 1019.0
20260901155456 90 329 1.0 7.0 0.00 0.00 0.00 61 1019.1
20260901154957 89 330 1.0 7.0 0.00 0.00 0.00 61 1019.2
20260901154458 89 314 1.0 7.0 0.00 0.00 0.00 63 1019.2
20260901153958 89 294 2.0 8.0 0.00 0.00 0.00 63 1019.2
20260901153451 89 302 3.0 8.0 0.00 0.00 0.00 63 1019.3
20260901152951 88 310 2.0 8.0 0.00 0.00 0.00 64 1019.2
20260901152451 87 306 2.0 7.0 0.00 0.00 0.00 66 1019.3
20260901151945 87 300 1.0 6.0 0.00 0.00 0.00 67 1019.3
20260901151446 86 306 1.0 6.0 0.00 0.00 0.00 69 1019.3
20260901150946 84 281 2.0 6.0 0.00 0.00 0.00 72 1019.2
20260901150440 83 315 1.0 6.0 0.00 0.00 0.00 75 1019.3
20260901145705 82 281 0.0 4.0 0.00 0.00 0.00 78 1019.2
20260901145218 81 281 1.0 6.0 0.00 0.00 0.00 79 1019.3
20260901144441 81 307 1.0 6.0 0.00 0.00 0.00 80 1019.3
20260901144206 80 233 0.0 2.0 0.00 0.00 0.00 83 1019.3
20260901143434 79 234 1.0 5.0 0.00 0.00 0.00 84 1019.3
20260901142935 79 233 1.0 5.0 0.00 0.00 0.00 85 1019.3
20260901142435 78 261 1.0 4.0 0.00 0.00 0.00 87 1019.4
20260901141939 77 290 1.0 6.0 0.00 0.00 0.00 88 1019.4
20260901141656 77 306 1.0 6.0 0.00 0.00 0.00 89 1019.4
20260901140929 77 303 0.0 4.0 0.00 0.00 0.00 89 1019.4
20260901140445 76 248 0.0 2.0 0.00 0.00 0.00 90 1019.5
20260901135924 76 247 0.0 1.0 0.00 0.00 0.00 90 1019.4
20260901135423 76 247 0.0 0.0 0.00 0.00 0.00 90 1019.5
20260901134926 75 247 0.0 0.0 0.00 0.00 0.00 90 1019.5
20260901134422 75 247 0.0 0.0 0.00 0.00 0.00 90 1019.5
20260901133921 75 247 0.0 0.0 0.00 0.00 0.00 90 1019.5
20260901133423 74 247 0.0 0.0 0.00 0.00 0.00 90 1019.6
20260901132918 74 247 0.0 0.0 0.00 0.00 0.00 90 1019.6
20260901132644 74 247 0.0 0.0 0.00 0.00 0.00 90 1019.6
20260901131918 74 247 0.0 0.0 0.00 0.00 0.00 90 1019.6
20260901131418 73 247 0.0 0.0 0.00 0.00 0.00 90 1019.6
20260901125911 73 247 0.0 0.0 0.00 0.00 0.00 90 1019.6
20260901125414 72 247 0.0 0.0 0.00 0.00 0.00 90 1019.5
20260901124909 72 247 0.0 0.0 0.00 0.00 0.00 90 1019.6
20260901124408 72 247 0.0 0.0 0.00 0.00 0.00 90 1019.5
20260901123910 72 247 0.0 0.0 0.00 0.00 0.00 90 1019.5
20260901123408 72 247 0.0 0.0 0.00 0.00 0.00 90 1019.5
20260901123146 72 247 0.0 0.0 0.00 0.00 0.00 90 1019.5
20260901122406 71 247 0.0 0.0 0.00 0.00 0.00 90 1019.6
20260901121900 71 247 0.0 0.0 0.00 0.00 0.00 90 1019.5
20260901121359 71 247 0.0 0.0 0.00 0.00 0.00 90 1019.4
20260901120857 71 247 0.0 0.0 0.00 0.00 0.00 90 1019.4
20260901120352 71 247 0.0 0.0 0.00 0.00 0.00 89 1019.4
20260901115850 71 247 0.0 0.0 0.00 0.00 0.00 89 1019.3
20260901115352 71 247 0.0 0.0 0.00 0.00 0.00 89 1019.2
20260901114849 71 247 0.0 0.0 0.00 0.00 0.00 89 1019.1
20260901114348 71 247 0.0 0.0 0.00 0.00 0.00 89 1019.1
20260901113847 71 247 0.0 0.0 0.00 0.00 0.00 89 1019.1
20260901113341 71 247 0.0 0.0 0.00 0.00 0.00 89 1019.0
20260901112841 71 247 0.0 0.0 0.00 0.00 0.00 89 1018.9
20260901112341 71 247 0.0 0.0 0.00 0.00 0.00 89 1018.8
20260901111838 71 247 0.0 0.0 0.00 0.00 0.00 89 1018.8
20260901111336 71 247 0.0 0.0 0.00 0.00 0.00 89 1018.6
20260901110837 71 247 0.0 0.0 0.00 0.00 0.00 89 1018.6
20260901110333 71 247 0.0 0.0 0.00 0.00 0.00 89 1018.5
20260901110049 71 247 0.0 0.0 0.00 0.00 0.00 89 1018.4
20260901105334 71 247 0.0 0.0 0.00 0.00 0.00 89 1018.4
20260901104834 71 247 0.0 0.0 0.00 0.00 0.00 89 1018.3
20260901104333 71 247 0.0 0.0 0.00 0.00 0.00 89 1018.2
20260901103829 71 247 0.0 0.0 0.00 0.00 0.00 89 1018.2
20260901103327 71 247 0.0 0.0 0.00 0.00 0.00 89 1018.2
20260901102827 71 247 0.0 0.0 0.00 0.00 0.00 89 1018.3
20260901102326 71 247 0.0 0.0 0.00 0.00 0.00 89 1018.1
20260901101825 71 247 0.0 0.0 0.00 0.00 0.00 89 1018.1
20260901101325 72 247 0.0 0.0 0.00 0.00 0.00 89 1018.1
20260901100827 72 247 0.0 0.0 0.00 0.00 0.00 89 1018.0
20260901100322 72 247 0.0 0.0 0.00 0.00 0.00 89 1018.0
20260901095826 72 247 0.0 0.0 0.00 0.00 0.00 89 1017.9
20260901095321 72 247 0.0 0.0 0.00 0.00 0.00 89 1017.8
20260901094816 72 247 0.0 0.0 0.00 0.00 0.00 89 1017.8
20260901094552 72 247 0.0 0.0 0.00 0.00 0.00 89 1017.8
20260901093819 72 247 0.0 0.0 0.00 0.00 0.00 89 1017.7
20260901092816 72 247 0.0 0.0 0.00 0.00 0.00 89 1017.6
20260901092319 72 247 0.0 0.0 0.00 0.00 0.00 89 1017.6
20260901091818 72 247 0.0 0.0 0.00 0.00 0.00 89 1017.6
20260901091310 72 247 0.0 0.0 0.00 0.00 0.00 89 1017.6
20260901090551 72 247 0.0 0.0 0.00 0.00 0.00 89 1017.3
20260901085802 72 247 0.0 0.0 0.00 0.00 0.00 89 1017.2
20260901085301 72 247 0.0 0.0 0.00 0.00 0.00 89 1017.2
20260901084804 72 247 0.0 0.0 0.00 0.00 0.00 89 1017.2
20260901084300 72 247 0.0 0.0 0.00 0.00 0.00 89 1017.2
20260901083758 73 247 0.0 0.0 0.00 0.00 0.00 89 1017.2
20260901083259 73 247 0.0 0.0 0.00 0.00 0.00 89 1017.2
20260901082755 73 247 0.0 0.0 0.00 0.00 0.00 89 1017.2
20260901082518 73 247 0.0 0.0 0.00 0.00 0.00 88 1017.2
20260901081756 73 247 0.0 0.0 0.00 0.00 0.00 89 1017.1
20260901081250 73 247 0.0 0.0 0.00 0.00 0.00 89 1017.1
20260901081014 73 247 0.0 0.0 0.00 0.00 0.00 89 1017.1
20260901080315 73 247 0.0 0.0 0.00 0.00 0.00 88 1017.1
20260901075751 73 247 0.0 0.0 0.00 0.00 0.00 88 1017.2
20260901075250 73 247 0.0 0.0 0.00 0.00 0.00 88 1017.1
20260901074741 73 247 0.0 0.0 0.00 0.00 0.00 88 1017.1
20260901074240 73 247 0.0 0.0 0.00 0.00 0.00 88 1017.1
20260901073744 73 247 0.0 0.0 0.00 0.00 0.00 88 1017.1
20260901073251 73 247 0.0 0.0 0.00 0.00 0.00 88 1017.1
20260901073006 73 247 0.0 0.0 0.00 0.00 0.00 88 1017.2
20260901072248 73 247 0.0 0.0 0.00 0.00 0.00 88 1017.2
20260901071733 73 247 0.0 0.0 0.00 0.00 0.00 88 1017.2
20260901071245 73 247 0.0 0.0 0.00 0.00 0.00 88 1017.3
20260901070733 73 247 0.0 0.0 0.00 0.00 0.00 88 1017.4
20260901070227 73 247 0.0 0.0 0.00 0.00 0.00 88 1017.3
20260901065954 74 247 0.0 0.0 0.00 0.00 0.00 88 1017.3
20260901065228 74 247 0.0 0.0 0.00 0.00 0.00 88 1017.4
20260901064724 74 247 0.0 0.0 0.00 0.00 0.00 88 1017.6
20260901064504 74 247 0.0 0.0 0.00 0.00 0.00 88 1017.6
20260901063941 74 247 0.0 0.0 0.00 0.00 0.00 88 1017.6
20260901063220 74 247 0.0 0.0 0.00 0.00 0.00 88 1017.6
20260901062722 74 247 0.0 0.0 0.00 0.00 0.00 88 1017.7
20260901062218 74 247 0.0 0.0 0.00 0.00 0.00 88 1017.7
20260901061720 74 247 0.0 0.0 0.00 0.00 0.00 88 1017.7
20260901060710 74 247 0.0 0.0 0.00 0.00 0.00 87 1017.8
20260901060439 74 247 0.0 0.0 0.00 0.00 0.00 87 1017.8
20260901055936 74 247 0.0 0.0 0.00 0.00 0.00 87 1017.8
20260901055429 74 247 0.0 0.0 0.00 0.00 0.00 86 1017.9
20260901054205 75 247 0.0 0.0 0.00 0.00 0.00 86 1017.9
20260901053920 75 247 0.0 0.0 0.00 0.00 0.00 86 1018.0
20260901053157 75 247 0.0 0.0 0.00 0.00 0.00 87 1018.0
20260901052700 74 247 0.0 0.0 0.00 0.00 0.00 87 1018.1
20260901052158 74 247 0.0 0.0 0.00 0.00 0.00 87 1018.1
20260901051658 75 247 0.0 0.0 0.00 0.00 0.00 86 1018.1
20260901051155 75 247 0.0 0.0 0.00 0.00 0.00 86 1018.1
20260901050920 75 247 0.0 0.0 0.00 0.00 0.00 86 1018.0
20260901050414 75 247 0.0 0.0 0.00 0.00 0.00 86 1017.9
20260901045648 75 242 0.0 0.0 0.00 0.00 0.00 86 1017.9
20260901045413 75 242 0.0 0.0 0.00 0.00 0.00 86 1017.8
20260901044647 75 242 0.0 0.0 0.00 0.00 0.00 86 1017.9
20260901044146 75 242 0.0 0.0 0.00 0.00 0.00 85 1017.9
20260901043648 75 242 0.0 0.0 0.00 0.00 0.00 85 1017.9
20260901043416 75 242 0.0 0.0 0.00 0.00 0.00 85 1017.9
20260901042646 75 242 0.0 0.0 0.00 0.00 0.00 84 1017.9
20260901042143 76 242 0.0 0.0 0.00 0.00 0.00 84 1017.8
20260901041641 76 242 0.0 0.0 0.00 0.00 0.00 84 1017.8
20260901041141 76 242 0.0 0.0 0.00 0.00 0.00 84 1017.8
20260901040636 76 242 0.0 0.0 0.00 0.00 0.00 84 1017.8
20260901040136 76 242 0.0 0.0 0.00 0.00 0.00 84 1017.8
20260901035633 76 242 0.0 0.0 0.00 0.00 0.00 84 1017.8
20260901035129 76 242 0.0 0.0 0.00 0.00 0.00 83 1017.7
20260901034626 76 242 0.0 0.0 0.00 0.00 0.00 83 1017.7
20260901034128 76 242 0.0 0.0 0.00 0.00 0.00 83 1017.7
20260901033626 77 242 0.0 0.0 0.00 0.00 0.00 82 1017.7
20260901033126 77 242 0.0 0.0 0.00 0.00 0.00 82 1017.7
20260901032850 77 242 0.0 0.0 0.00 0.00 0.00 82 1017.6
20260901032120 77 242 0.0 0.0 0.00 0.00 0.00 82 1017.7
20260901031846 77 242 0.0 0.0 0.00 0.00 0.00 82 1017.7
20260901031344 77 242 0.0 0.0 0.00 0.00 0.00 81 1017.7
20260901030614 77 242 0.0 0.0 0.00 0.00 0.00 81 1017.7
20260901030114 77 242 0.0 0.0 0.00 0.00 0.00 81 1017.6
20260901025613 77 242 0.0 0.0 0.00 0.00 0.00 81 1017.7
20260901025107 77 242 0.0 0.0 0.00 0.00 0.00 81 1017.6
20260901024604 78 242 0.0 0.0 0.00 0.00 0.00 81 1017.4
20260901024323 78 242 0.0 0.0 0.00 0.00 0.00 81 1017.4
20260901023558 78 242 0.0 0.0 0.00 0.00 0.00 80 1017.6
20260901023320 78 242 0.0 0.0 0.00 0.00 0.00 80 1017.4
20260901022558 78 242 0.0 0.0 0.00 0.00 0.00 80 1017.3
20260901022056 78 242 0.0 0.0 0.00 0.00 0.00 79 1017.3
20260901021554 79 242 0.0 0.0 0.00 0.00 0.00 79 1017.3
20260901021048 79 242 0.0 0.0 0.00 0.00 0.00 78 1017.2
20260901020547 79 242 0.0 0.0 0.00 0.00 0.00 78 1017.2
20260901020100 80 242 0.0 0.0 0.00 0.00 0.00 78 1017.2
20260901015544 80 242 0.0 0.0 0.00 0.00 0.00 77 1017.1
20260901015044 80 242 0.0 0.0 0.00 0.00 0.00 77 1017.0
20260901014543 80 242 0.0 0.0 0.00 0.00 0.00 77 1017.1
20260901014039 80 242 0.0 0.0 0.00 0.00 0.00 77 1017.0
20260901013552 80 242 0.0 0.0 0.00 0.00 0.00 77 1017.1
20260901013039 80 242 0.0 0.0 0.00 0.00 0.00 77 1017.0
20260901012539 80 242 0.0 0.0 0.00 0.00 0.00 77 1017.0
20260901012040 81 242 0.0 0.0 0.00 0.00 0.00 76 1017.0
20260901011551 81 242 0.0 0.0 0.00 0.00 0.00 76 1016.9
20260901011039 82 242 0.0 0.0 0.00 0.00 0.00 74 1016.9
20260901010535 82 242 0.0 0.0 0.00 0.00 0.00 73 1016.7
20260901010030 82 242 0.0 0.0 0.00 0.00 0.00 73 1016.7
20260901005529 83 242 0.0 0.0 0.00 0.00 0.00 73 1016.7
20260901005029 83 242 0.0 0.0 0.00 0.00 0.00 72 1016.7
20260901004023 84 242 0.0 0.0 0.00 0.00 0.00 71 1016.6
20260901003524 84 242 0.0 0.0 0.00 0.00 0.00 71 1016.6
20260901003022 85 242 0.0 0.0 0.00 0.00 0.00 70 1016.6
20260901002521 85 242 0.0 0.0 0.00 0.00 0.00 70 1016.6
20260901002023 85 242 0.0 0.0 0.00 0.00 0.00 70 1016.6
20260901001742 85 242 0.0 0.0 0.00 0.00 0.00 69 1016.5
20260901001241 86 242 0.0 0.0 0.00 0.00 0.00 68 1016.5
20260901000520 87 242 0.0 0.0 0.00 0.00 0.00 66 1016.6
20260901000014 87 242 0.0 0.0 0.00 0.00 0.00 65 1016.5
20260831235013 87 242 0.0 0.0 0.00 0.00 0.00 63 1016.5
20260831234007 89 242 0.0 0.0 0.00 0.00 0.00 59 1016.6
20260831233509 89 242 0.0 0.0 0.00 0.00 0.00 58 1016.5
20260831233002 90 242 0.0 1.0 0.00 0.00 0.00 57 1016.5
20260831232501 90 242 0.0 1.0 0.00 0.00 0.00 55 1016.6
20260831232002 91 242 0.0 1.0 0.00 0.00 0.00 54 1016.6
20260831231459 91 242 0.0 1.0 0.00 0.00 0.00 53 1016.5
20260831230955 92 242 0.0 1.0 0.00 0.00 0.00 51 1016.6
20260831230455 92 242 0.0 1.0 0.00 0.00 0.00 51 1016.6
20260831225953 92 242 0.0 2.0 0.00 0.00 0.00 50 1016.5
20260831225454 92 302 0.0 2.0 0.00 0.00 0.00 51 1016.6
20260831224953 92 304 0.0 2.0 0.00 0.00 0.00 50 1016.6
20260831224450 92 304 0.0 3.0 0.00 0.00 0.00 50 1016.7
20260831223950 93 304 0.0 3.0 0.00 0.00 0.00 51 1016.7
20260831223447 93 279 0.0 3.0 0.00 0.00 0.00 50 1016.7
20260831222946 93 300 0.0 2.0 0.00 0.00 0.00 50 1016.8
20260831222444 93 300 0.0 2.0 0.00 0.00 0.00 50 1016.9
20260831221942 93 236 0.0 2.0 0.00 0.00 0.00 49 1017.0
20260831221443 93 238 0.0 2.0 0.00 0.00 0.00 49 1017.0
20260831220943 93 238 0.0 2.0 0.00 0.00 0.00 50 1017.1
20260831220442 94 238 0.0 2.0 0.00 0.00 0.00 50 1017.1
20260831220204 93 261 0.0 2.0 0.00 0.00 0.00 51 1017.2
20260831215444 94 223 1.0 2.0 0.00 0.00 0.00 49 1017.2
20260831214936 94 223 1.0 2.0 0.00 0.00 0.00 49 1017.3
20260831214436 94 279 0.0 2.0 0.00 0.00 0.00 48 1017.3
20260831213938 94 358 0.0 3.0 0.00 0.00 0.00 47 1017.4
20260831213654 94 352 1.0 3.0 0.00 0.00 0.00 48 1017.4
20260831212933 95 154 1.0 3.0 0.00 0.00 0.00 49 1017.4
20260831212434 95 298 1.0 4.0 0.00 0.00 0.00 48 1017.4
20260831212155 95 310 1.0 4.0 0.00 0.00 0.00 47 1017.4
20260831211436 95 287 0.0 3.0 0.00 0.00 0.00 48 1017.4
20260831211152 94 300 1.0 2.0 0.00 0.00 0.00 48 1017.6
20260831210433 95 300 1.0 2.0 0.00 0.00 0.00 48 1017.6
20260831205931 95 326 0.0 3.0 0.00 0.00 0.00 47 1017.6
20260831205653 95 300 1.0 3.0 0.00 0.00 0.00 47 1017.6
20260831205145 95 317 1.0 3.0 0.00 0.00 0.00 49 1017.7
20260831204425 95 318 1.0 3.0 0.00 0.00 0.00 47 1017.7
20260831204147 95 304 1.0 3.0 0.00 0.00 0.00 48 1017.8
20260831203419 94 293 1.0 3.0 0.00 0.00 0.00 48 1017.8
20260831202930 95 306 1.0 3.0 0.00 0.00 0.00 48 1017.8
20260831202417 96 0 1.0 6.0 0.00 0.00 0.00 48 1017.7
20260831201928 97 308 1.0 6.0 0.00 0.00 0.00 47 1017.8
20260831201414 95 335 1.0 5.0 0.00 0.00 0.00 49 1017.9
20260831200913 94 294 1.0 4.0 0.00 0.00 0.00 53 1018.0
20260831200411 95 308 1.0 4.0 0.00 0.00 0.00 47 1018.1
20260831200136 95 330 1.0 4.0 0.00 0.00 0.00 50 1018.2
20260831195406 95 9 1.0 7.0 0.00 0.00 0.00 49 1018.2
20260831194908 94 349 1.0 7.0 0.00 0.00 0.00 51 1018.2
20260831194359 94 281 1.0 3.0 0.00 0.00 0.00 51 1018.3
20260831193859 94 91 1.0 4.0 0.00 0.00 0.00 51 1018.4
20260831193357 94 294 1.0 4.0 0.00 0.00 0.00 51 1018.4
20260831192855 94 316 1.0 6.0 0.00 0.00 0.00 49 1018.4